Flag for U.S.A. Weather past 2 weeks in Atlantic City, New Jersey, U.S.A.

Now
82 °F

Sunny.


Feels Like: 82 °F
Forecast: 67 / 79 °F
Wind: 12 mph from Southwest

Location: Atlantic City International Airport

Current Time: Jul 31, 2014 at 1:36:03 PM

Latest Report: Jul 31, 2014 at 12:54 PM


Visibility: 10 mi

Pressure: 30.10 "Hg

Humidity: 46%

Dew point: 59 °F

Location of Atlantic CityLocation

Historic Weather in Atlantic City — Graph

°F

Atlantic City temperature yesterday

Maximum temperature yesterday: 80 °F (at 3:54 PM)
Minimum temperature yesterday: 60 °F (at 5:54 AM)
Average temperature yesterday: 70 °F

Past Weeks' High & Low Weather Summary

 TemperatureHumidityPressure
High86 °F (Jul 23, 11:54 AM)100% (Jul 21, 3:54 AM)30.23 "Hg (Jul 21, 3:54 AM)
Low57 °F (Jul 31, 4:54 AM)35% (Jul 30, 4:54 PM)29.56 "Hg (Jul 28, 5:54 AM)
Average72 °F73%29.98 "Hg
* Reported Jul 16 11:54 AM — Jul 31 11:54 AM, Atlantic City, Weather by CustomWeather, © 2014

Note: Actual official high and low records may vary slightly from our data, if they occured in-between our weather recording intervals... More about our weather records

Advertising

Atlantic City weather history for previous 24 hours

 ConditionsComfort  
Time TempWeatherWind HumidityBarometerVisibility
11:54 AM
Jul 31
81 °FSunny.12 mph47%30.11 "Hg10 mi
10:54 AM79 °FPassing clouds.9 mph56%30.11 "Hg10 mi
9:54 AM76 °FSunny.9 mph64%30.12 "Hg10 mi
8:54 AM73 °FSunny.8 mph62%30.12 "Hg10 mi
7:54 AM69 °FSunny.7 mph68%30.12 "Hg10 mi
6:54 AM63 °FClear.3 mph90%30.10 "Hg10 mi
5:54 AM57 °FClear.No wind93%30.09 "Hg10 mi
4:54 AM57 °FClear.No wind90%30.08 "Hg10 mi
3:54 AM58 °FClear.No wind87%30.08 "Hg10 mi
2:54 AM63 °FClear.3 mph81%30.08 "Hg10 mi
1:54 AM64 °FClear.5 mph81%30.08 "Hg10 mi
12:54 AM62 °FClear.No wind80%30.07 "Hg10 mi
11:54 PM
Jul 30
64 °FClear.5 mph75%30.06 "Hg10 mi
10:54 PM66 °FClear.7 mph73%30.06 "Hg10 mi
9:54 PM67 °FClear.5 mph68%30.07 "Hg10 mi
8:54 PM71 °FSunny.5 mph59%30.05 "Hg10 mi
7:54 PM73 °FSunny.7 mph51%30.04 "Hg10 mi
6:54 PM76 °FSunny.12 mph45%30.03 "Hg10 mi
5:54 PM77 °FSunny.8 mph40%30.02 "Hg10 mi
4:54 PM80 °FScattered clouds.N/A35%30.02 "Hg10 mi
3:54 PM80 °FPassing clouds.No wind36%30.02 "Hg10 mi
2:54 PM78 °FPartly sunny.5 mph37%30.03 "Hg10 mi
1:54 PM79 °FPassing clouds.7 mph39%30.03 "Hg10 mi
Weather by CustomWeather, © 2014

See weather overviewHow to use our weather pages